Weather reports worldwide

Advertisment
South Uist Range, United Kingdom (3023): temperature & dewpoint: 20.05.2019 01:00:00 - 26.05.2019 01:00:00 (BST)South Uist Range, United Kingdom (3023): temperature -20cm & temperature -100cm: 20.05.2019 01:00:00 - 26.05.2019 01:00:00 (BST)South Uist Range, United Kingdom (3023): wind speed & gusts: 20.05.2019 01:00:00 - 26.05.2019 01:00:00 (BST)South Uist Range, United Kingdom (3023): wind direction: 20.05.2019 01:00:00 - 26.05.2019 01:00:00 (BST)South Uist Range, United Kingdom (3023): reduced air pressure: 20.05.2019 01:00:00 - 26.05.2019 01:00:00 (BST)South Uist Range, United Kingdom (3023): visibility: 20.05.2019 01:00:00 - 26.05.2019 01:00:00 (BST)South Uist Range, United Kingdom (3023): precipitation: 20.05.2019 01:00:00 - 26.05.2019 01:00:00 (BST)
Date & Time tt [°C] td [°C] tt -20cm [°C] tt -100cm [°C] ff [km/h] ff [kn] fx [km/h] fx [kn] dd ppp [hPa] vv [km] rr [mm]
26.05.2019 01:00:00 - - - - - - - - - - - -
26.05.2019 00:00:00 9,0 8,6 - - 28 15 - - ENE 1008,9 2,7 1,8
25.05.2019 23:00:00 9,1 8,7 - - 31 17 - - ENE 1009,6 3,2 2,0
25.05.2019 22:00:00 9,1 8,7 - - 31 17 - - ENE 1009,8 4,4 2,6
25.05.2019 21:00:00 9,1 8,8 - - 31 17 - - ENE 1010,0 8 1,0
25.05.2019 20:00:00 9,6 9,3 - - 28 15 - - NE 1010,2 6 0,8
25.05.2019 19:00:00 10,5 10,1 - - 16 9 - - ENE 1010,4 9 0,6
25.05.2019 18:00:00 11,8 11,3 - - 16 9 - - W 1010,2 1,7 1,2
25.05.2019 17:00:00 11,9 11,4 - - 13 7 - - W 1010,5 2,5 1,4
25.05.2019 16:00:00 10,6 9,8 - - 21 11 - - E 1010,8 4,2 1,2
25.05.2019 15:00:00 10,7 9,6 - - 26 14 48 26 SE 1011,4 3,5 0,2
25.05.2019 14:00:00 10,6 9,4 - - 34 18 - - SE 1011,8 28 0,6
25.05.2019 13:00:00 9,8 8,9 - - 22 12 - - ESE 1013,3 2,4 1,8
25.05.2019 12:00:00 9,8 8,6 - - 15 8 - - ESE 1014,1 6 2,2
25.05.2019 11:00:00 9,2 7,9 - - 5 3 - - E 1015,1 5 1,2
25.05.2019 10:00:00 9,3 8,0 12,0 10,0 22 12 - - S 1015,5 10 1,2
25.05.2019 09:00:00 8,7 7,2 - - 16 9 - - S 1016,1 9 1,2
25.05.2019 08:00:00 8,7 7,0 - - 11 6 - - S 1016,5 11 0,8
25.05.2019 07:00:00 9,1 6,7 - - 9 5 - - SSW 1016,9 10 0,2
25.05.2019 06:00:00 9,4 5,9 - - 13 7 - - SW 1017,2 30 0,0
25.05.2019 05:00:00 9,5 5,8 - - 13 7 - - WSW 1017,5 40 0,0
25.05.2019 04:00:00 8,4 6,0 - - 8 4 - - SSE 1018,0 30 0,0
25.05.2019 03:00:00 8,3 5,5 - - 5 3 - - SSE 1018,2 30 0,0
25.05.2019 02:00:00 8,9 4,7 - - 0 0 - - N 1018,8 30 0,0
25.05.2019 01:00:00 9,0 4,7 - - 2 1 - - NW 1019,1 30 0,0
25.05.2019 00:00:00 9,3 4,6 - - 8 4 - - NW 1019,4 30 0,0
24.05.2019 23:00:00 9,5 4,2 - - 11 6 - - WNW 1019,7 35 0,0
24.05.2019 22:00:00 9,4 4,1 - - 8 4 - - NNW 1019,4 30 0,0
24.05.2019 21:00:00 9,6 4,4 - - 13 7 - - WNW 1019,4 30 0,0
24.05.2019 20:00:00 9,8 4,4 - - 13 7 - - NNW 1019,0 30 0,0
24.05.2019 19:00:00 10,3 5,0 - - 16 9 - - WNW 1019,2 30 0,0
24.05.2019 18:00:00 10,5 4,8 - - 16 9 - - WNW 1018,9 30 0,0
24.05.2019 17:00:00 10,9 5,1 - - 16 9 - - WNW 1019,0 30 0,0
24.05.2019 16:00:00 10,5 5,4 - - 16 9 - - NW 1019,1 25 0,0
24.05.2019 15:00:00 10,8 5,3 - - 18 10 - - NW 1019,0 30 0,0
24.05.2019 14:00:00 10,8 5,4 - - 16 9 - - NW 1018,5 30 0,0
24.05.2019 13:00:00 10,8 6,3 - - 18 10 - - WNW 1018,4 30 0,0
24.05.2019 12:00:00 10,1 5,8 - - 15 8 - - WNW 1018,2 26 0,0
24.05.2019 11:00:00 9,6 5,7 - - 21 11 - - NW 1017,9 26 0,0
24.05.2019 10:00:00 9,7 5,5 12,0 10,0 16 9 - - WNW 1017,7 26 0,0
24.05.2019 09:00:00 9,6 4,8 - - 18 10 - - NW 1017,4 29 0,0
24.05.2019 08:00:00 9,4 4,8 - - 15 8 - - NW 1017,1 35 0,0
24.05.2019 07:00:00 9,2 4,7 - - 18 10 - - NW 1016,8 45 0,0
24.05.2019 06:00:00 9,1 5,1 - - 18 10 - - WNW 1016,6 30 0,0
24.05.2019 05:00:00 9,1 4,8 - - 15 8 - - WNW 1016,1 45 0,0
24.05.2019 04:00:00 9,1 4,5 - - 22 12 - - WNW 1016,2 50 0,0
24.05.2019 03:00:00 9,2 5,1 - - 21 11 - - WNW 1016,3 45 0,0
24.05.2019 02:00:00 9,2 5,5 - - 21 11 - - WNW 1016,2 45 0,0
24.05.2019 01:00:00 9,3 5,1 - - 18 10 - - WNW 1016,0 40 0,0
24.05.2019 00:00:00 9,3 4,9 - - 22 12 - - WNW 1016,0 40 0,0
23.05.2019 23:00:00 9,2 5,4 - - 21 11 - - NW 1015,7 45 0,0
23.05.2019 22:00:00 9,4 5,4 - - 21 11 - - NW 1015,4 45 0,0
23.05.2019 21:00:00 9,6 5,4 - - 24 13 - - NW 1015,3 60 0,0
23.05.2019 20:00:00 10,1 5,8 - - 22 12 - - NW 1015,2 60 0,0
23.05.2019 19:00:00 10,3 5,8 - - 28 15 - - WNW 1015,0 75 0,0
23.05.2019 18:00:00 10,4 6,5 - - 28 15 - - WNW 1015,0 75 0,0
23.05.2019 17:00:00 10,1 6,8 - - 24 13 - - WNW 1015,0 75 0,0
23.05.2019 16:00:00 10,2 7,3 - - 26 14 - - WNW 1014,8 75 0,0
23.05.2019 15:00:00 10,9 6,7 - - 29 16 - - WNW 1014,8 75 0,0
23.05.2019 14:00:00 10,7 6,8 - - 26 14 - - WNW 1014,7 75 0,0
23.05.2019 13:00:00 10,3 6,8 - - 24 13 - - WNW 1014,5 35 0,0
23.05.2019 12:00:00 10,4 7,2 - - 22 12 - - NW 1014,4 75 0,0
23.05.2019 11:00:00 9,9 8,1 - - 18 10 - - NW 1014,5 11 0,0
23.05.2019 10:00:00 9,7 7,9 12,2 10,0 22 12 - - WNW 1014,5 75 0,0
23.05.2019 09:00:00 9,1 8,2 - - 22 12 - - WNW 1014,3 2,3 0,2
23.05.2019 08:00:00 9,2 8,0 - - 22 12 - - WNW 1014,3 10 0,0
23.05.2019 07:00:00 9,3 7,8 - - 22 12 - - WNW 1014,1 29 0,0
23.05.2019 06:00:00 9,6 7,6 - - 21 11 - - NW 1014,1 55 0,0
23.05.2019 05:00:00 9,3 7,5 - - 24 13 - - NW 1014,5 17 0,0
23.05.2019 04:00:00 9,9 7,0 - - 22 12 - - WNW 1014,6 65 0,0
23.05.2019 03:00:00 9,9 7,3 - - 22 12 - - WNW 1015,1 70 0,0
23.05.2019 02:00:00 9,9 7,7 - - 22 12 - - NW 1015,2 75 0,0
23.05.2019 01:00:00 10,0 7,9 - - 22 12 - - NW 1015,5 50 0,0
23.05.2019 00:00:00 10,1 7,7 - - 21 11 - - WNW 1015,8 75 0,0
22.05.2019 23:00:00 10,1 8,0 - - 22 12 - - NW 1016,2 75 0,0
22.05.2019 22:00:00 10,1 9,0 - - 22 12 - - WNW 1016,5 50 0,4
22.05.2019 21:00:00 9,7 8,6 - - 34 18 - - W 1016,5 11 0,2
22.05.2019 20:00:00 10,8 8,3 - - 28 15 - - WNW 1016,8 50 0,0
22.05.2019 19:00:00 11,1 7,6 - - 28 15 - - WNW 1017,1 75 0,0
22.05.2019 18:00:00 11,3 7,7 - - 28 15 - - WNW 1017,4 75 0,0
22.05.2019 17:00:00 11,5 7,4 - - 26 14 - - WNW 1017,7 75 0,0
22.05.2019 16:00:00 11,8 7,2 - - 26 14 - - WNW 1017,7 75 0,0
22.05.2019 15:00:00 11,9 7,1 - - 26 14 - - WNW 1017,8 75 0,0
22.05.2019 14:00:00 12,3 7,0 - - 26 14 - - WNW 1018,1 75 0,0
22.05.2019 13:00:00 12,3 8,0 - - 26 14 - - WNW 1018,3 75 0,0
22.05.2019 12:00:00 11,3 7,1 - - 24 13 - - NW 1018,6 75 0,0
22.05.2019 11:00:00 11,1 7,1 - - 22 12 - - NW 1018,8 75 0,0
22.05.2019 10:00:00 11,3 7,4 12,2 9,9 22 12 - - NW 1018,7 75 0,0
22.05.2019 09:00:00 10,5 6,0 - - 22 12 - - NW 1018,7 75 0,0
22.05.2019 08:00:00 11,0 7,1 - - 21 11 - - NW 1018,6 75 0,0
22.05.2019 07:00:00 9,8 5,8 - - 22 12 - - NW 1018,7 75 0,0
22.05.2019 06:00:00 9,8 5,9 - - 21 11 - - NW 1018,9 75 0,0
22.05.2019 05:00:00 9,7 5,8 - - 21 11 - - NW 1019,1 75 0,0
22.05.2019 04:00:00 9,8 5,8 - - 18 10 - - NW 1019,3 75 0,0
22.05.2019 03:00:00 9,7 5,3 - - 18 10 - - NW 1019,5 75 0,0
22.05.2019 02:00:00 9,2 5,4 - - 16 9 - - NW 1019,8 75 0,0
22.05.2019 01:00:00 9,5 5,6 - - 16 9 - - NW 1020,0 75 0,0
22.05.2019 00:00:00 9,0 5,0 - - 18 10 - - NW 1020,2 75 0,0
21.05.2019 23:00:00 9,2 5,5 - - 16 9 - - NW 1020,4 75 0,0
21.05.2019 22:00:00 9,2 5,3 - - 15 8 - - NW 1020,6 75 0,0
21.05.2019 21:00:00 10,1 4,9 - - 16 9 - - NW 1020,5 75 0,0
21.05.2019 20:00:00 11,0 5,2 - - 21 11 - - NW 1020,5 75 0,0
21.05.2019 19:00:00 11,4 5,7 - - 21 11 - - NW 1020,5 75 0,0
21.05.2019 18:00:00 11,9 6,0 - - 21 11 - - WNW 1020,5 75 0,0
21.05.2019 17:00:00 12,0 5,8 - - 22 12 - - WNW 1020,4 75 0,0
21.05.2019 16:00:00 12,6 6,8 - - 22 12 - - WNW 1020,4 75 0,0
21.05.2019 15:00:00 12,0 5,9 - - 21 11 - - NW 1020,4 75 0,0
21.05.2019 14:00:00 11,9 6,3 - - 24 13 - - NW 1020,3 75 0,0
21.05.2019 13:00:00 11,8 6,7 - - 21 11 - - NW 1020,1 75 0,0
21.05.2019 12:00:00 11,5 6,8 - - 21 11 - - WNW 1020,0 75 0,0
21.05.2019 11:00:00 10,0 5,4 - - 11 6 - - NNE 1019,9 29 0,0
21.05.2019 10:00:00 10,7 6,5 12,0 9,7 21 11 - - WNW 1019,7 75 0,0
21.05.2019 09:00:00 11,0 6,8 - - 13 7 - - NW 1019,3 75 0,0
21.05.2019 08:00:00 10,6 6,8 - - 11 6 - - NW 1018,9 75 0,0
21.05.2019 07:00:00 9,9 7,2 - - 9 5 - - NW 1018,7 75 0,0
21.05.2019 06:00:00 8,1 5,3 - - 8 4 - - NW 1018,5 75 0,2
21.05.2019 05:00:00 8,6 5,8 - - 9 5 - - N 1018,6 75 2,0
21.05.2019 04:00:00 8,6 5,9 - - 15 8 - - WNW 1018,6 0,9 1,4
21.05.2019 03:00:00 9,5 6,9 - - 8 4 - - NW 1018,3 75 0,0
21.05.2019 02:00:00 9,9 7,3 - - 9 5 - - NNW 1018,0 75 0,0
21.05.2019 01:00:00 9,8 7,5 - - 9 5 - - NNW 1018,0 75 0,0
21.05.2019 00:00:00 9,7 7,4 - - 8 4 - - NNW 1017,9 75 0,0
20.05.2019 23:00:00 9,0 6,9 - - 11 6 - - NNW 1017,5 75 0,0
20.05.2019 22:00:00 9,4 7,1 - - 11 6 - - NW 1017,4 75 0,0
20.05.2019 21:00:00 10,4 7,1 - - 13 7 - - NNW 1017,0 75 0,0
20.05.2019 20:00:00 10,5 7,1 - - 15 8 - - NNW 1016,9 75 0,0
20.05.2019 19:00:00 11,3 8,0 - - 21 11 - - NNW 1016,5 75 0,0
20.05.2019 18:00:00 11,6 7,7 - - 21 11 - - NW 1016,2 75 0,0
20.05.2019 17:00:00 12,1 8,4 - - 18 10 - - NW 1015,9 75 0,0
20.05.2019 16:00:00 12,2 8,3 - - 21 11 - - WNW 1015,7 75 0,0
20.05.2019 15:00:00 12,2 8,6 - - 21 11 - - WNW 1015,4 75 0,0
20.05.2019 14:00:00 12,1 8,3 - - 21 11 - - WNW 1015,1 75 0,0
20.05.2019 13:00:00 12,0 8,4 - - 18 10 - - WNW 1014,8 75 0,0
20.05.2019 12:00:00 12,1 8,6 - - 15 8 - - WNW 1014,6 75 0,0
20.05.2019 11:00:00 11,4 7,9 - - 15 8 - - WNW 1014,3 75 0,0
20.05.2019 10:00:00 11,1 8,4 12,0 9,7 15 8 - - NW 1013,9 75 0,0
20.05.2019 09:00:00 10,8 8,2 - - 16 9 - - NW 1013,7 75 0,0
20.05.2019 08:00:00 10,3 7,8 - - 15 8 - - NW 1013,3 75 0,0
20.05.2019 07:00:00 10,1 8,1 - - 16 9 - - NW 1013,0 75 0,0
20.05.2019 06:00:00 9,6 7,8 - - 15 8 - - NW 1012,7 65 0,0
20.05.2019 05:00:00 10,0 8,1 - - 16 9 - - NW 1012,4 60 0,0
20.05.2019 04:00:00 9,8 7,7 - - 16 9 - - NW 1012,3 70 0,0
20.05.2019 03:00:00 9,8 7,4 - - 15 8 - - NW 1012,2 75 0,0
20.05.2019 02:00:00 9,9 7,5 - - 15 8 - - WNW 1012,3 75 0,0
20.05.2019 01:00:00 9,9 7,9 - - 15 8 - - NW 1012,3 35 0,0

tt = temperature
td = dewpoint
tt -20cm = temperature -20cm
tt -100cm = temperature -100cm
ff = wind speed
fx = gusts
dd = wind direction
ppp = reduced air pressure
vv = visibility
rr = precipitation

Next stations